BREEZE-KM R/B, 43754

Orbit data source: Space-Track

BREEZE-KM R/B, 43754 is space debris in LEO originally from a launch on Fri, 30 Nov 2018 UTC launched from the Plesetsk Missile And Space Complex (PKMTR). Debris objects in space refer to the collection of defunct objects orbiting the Earth. Examples of debris include non-operational satellites, rocket bodies, and fragments generated from explosions, collisions, or faulty payload assembly.

Loading next visibility...
Identifier
43754, 2018-097D
Orbit
LEO
Country
Flag of CISCIS
Related business
Manufacturer
Khrunichev
Mission
Spacecraft
Bus & Motor
BRIZ, S5.92
Mass
2,370 kg wet, 2,370 kg dry
Launch date (UTC)
2018-11-30 (7 years ago)
Launch vehicle
Unknown
Launch site
Plesetsk Missile And Space Complex (PKMTR)
Object type
Payload
Rocket body
Debris
Shape & HBR
Hex Cyl + 1 Rod, 2.0 m
Radar Cross Section
10.190 m², Large (>1 m²)

Expand to show TLE details & history
Last TLE update: 10 hours ago

TLE from 10 hours ago
0 BREEZE-KM R/B
1 43754U 18097D   26125.62161207  .00000004  00000-0 -32243-4 0  9992
2 43754  82.5103 127.2439 0223160  45.2814 316.6219 12.80115548346972
Epoch: 2026-05-05T14:55Z
TLE epoch observation values (Epoch: 2026-05-05T14:55:07.282Z)
Latitude
-0.00006°
Longitude
39.96973°
Altitude
1,220.39 km
Speed
7.302 km/s
True Right ascension
08h 28m 58s
True Declination
0° 00' 00"
Sunlit
Object was in daylight at epoch
Visualization orbit readout
Latitude
Unknown
Longitude
Unknown
Altitude
Unknown
Speed
Unknown
Apparent Right ascension
Unknown
Apparent Declination
Unknown
Sunlit
N/A
Visualization observer readout
Local Sidereal Time
08:36:21
Azimuth
Unknown
Elevation
Unknown
Doppler factor
Unknown
Orbital elements
Apogee altitude
1,510.502 km
Perigee altitude
1,166.102 km
Semi-major axis
7,716.439 km
Eccentricity
0.02232
Inclination
82.5103°
RAAN
127.2439°
Arg. of periapsis
45.2814°
True anomaly
314.82955°
Mean anomaly
316.6219°
Eccentric anomaly
315.72937°
Mean motion
3.20197 °/min
Orbital period
112.43 mins
BSTAR
-0.000032243
Loading maneuver chart data...
Computing Atmospheric mass density...
Loading historical data...
Loading historical data...
Loading historical data...
Loading historical data...
Loading historical data...
Loading historical data...
Loading historical data...
Other satellites on launch #97 in the year 2018 (2018-11-30 UTC)

Documentation

Showing up to 5 results
|